Manassas, VA

3:35 PM EDT on June 22, 2018 (GMT -0400)
Manassas Regional-Davis

Weather History for KHEF - April, 2008

Change the Weather History Date:

Thursday, April 24, 2008

  Actual Average Record
Temperature  
Mean Temperature 64 °F -  
Max Temperature 78 °F 66 °F 87 °F (2011)
Min Temperature 50 °F 41 °F 30 °F (2002)
Degree Days  
Heating Degree Days 1    
Growing Degree Days 14 (Base 50)    
Moisture  
Dew Point 52 °F    
Average Humidity 66    
Maximum Humidity 94    
Minimum Humidity 41    
Precipitation  
Precipitation 0.00 in - - ()
Sea Level Pressure  
Sea Level Pressure 30.17 in    
Wind  
Wind Speed 3 mph (North)    
Max Wind Speed 13 mph    
Max Gust Speed 16 mph    
Visibility 9 miles    
Events      
Averages and records for this station are not official NWS values.
T = Trace of Precipitation, MM = Missing Value Source: NWS Daily Summary

Daily Weather History Graph

Daily Weather History Graph

Search for Another Location

Airport or City:

Astronomy

Apr. 24, 2008 Rise Set
Actual Time 6:20 AM EDT 7:56 PM EDT
Civil Twilight 5:52 AM EDT 8:24 PM EDT
Nautical Twilight 5:18 AM EDT 8:58 PM EDT
Astronomical Twilight 4:42 AM EDT 9:34 PM EDT
Moon No Moon Rise 8:31 AM EDT (4/24)
Length of Visible Light 14h 31m
Length of Day
13h 35m
Waning Gibbous, 84% of the Moon is Illuminated
Apr 24
Waning Gibbous
Apr 28
Last Quarter
May 5
New
May 11
First Quarter
May 19
Full

Hourly Weather History & Observations

Time (EDT) Temp. Dew Point Humidity Pressure Visibility Wind Dir Wind Speed Gust Speed Precip Events Conditions
12:55 AM 53.6 °F 50.0 °F 88% 30.17 in 10.0 mi Calm Calm - N/A   Clear
1:55 AM 51.8 °F 50.0 °F 94% 30.17 in 7.0 mi Calm Calm - N/A   Scattered Clouds
2:55 AM 53.6 °F 50.0 °F 88% 30.16 in 9.0 mi Calm Calm - N/A   Overcast
3:55 AM 51.8 °F 48.2 °F 88% 30.16 in 10.0 mi Calm Calm - N/A   Scattered Clouds
4:55 AM 51.8 °F 50.0 °F 94% 30.15 in 3.0 mi Calm Calm - N/A   Clear
5:54 AM 50.0 °F 48.2 °F 94% 30.16 in 1.8 mi Calm Calm - N/A   Clear
5:55 AM 50.0 °F 48.2 °F 94% 30.16 in 1.5 mi Calm Calm - N/A   Clear
6:02 AM 50.0 °F 48.2 °F 94% 30.16 in 3.0 mi Calm Calm - N/A   Clear
6:55 AM 50.0 °F 48.2 °F 94% 30.18 in 7.0 mi Calm Calm - N/A   Clear
8:55 AM 64.4 °F 55.4 °F 73% 30.22 in 10.0 mi NNW 5.8 mph - N/A   Clear
9:55 AM 68.0 °F 53.6 °F 60% 30.22 in 10.0 mi North 10.4 mph - N/A   Clear
10:06 AM 69.8 °F 53.6 °F 56% 30.23 in 10.0 mi NNE 12.7 mph - N/A   Clear
10:21 AM 69.8 °F 55.4 °F 60% 30.23 in 10.0 mi North 10.4 mph - N/A   Clear
11:23 AM 71.6 °F 55.4 °F 57% 30.23 in 10.0 mi NNW 10.4 mph - N/A   Clear
11:37 AM 71.6 °F 53.6 °F 53% 30.23 in 10.0 mi North 10.4 mph 16.1 mph N/A   Clear
11:55 AM 73.4 °F 53.6 °F 50% 30.23 in 10.0 mi NNW 8.1 mph - N/A   Clear
12:27 PM 73.4 °F 53.6 °F 50% 30.21 in 10.0 mi North 10.4 mph - N/A   Clear
12:55 PM 75.2 °F 53.6 °F 47% 30.20 in 10.0 mi NNE 9.2 mph - N/A   Clear
1:47 PM 75.2 °F 53.6 °F 47% 30.18 in 10.0 mi North 8.1 mph - N/A   Clear
1:55 PM 75.2 °F 51.8 °F 44% 30.18 in 10.0 mi NNW 6.9 mph - N/A   Clear
2:55 PM 77.0 °F 53.6 °F 44% 30.16 in 10.0 mi Calm Calm - N/A   Clear
3:55 PM 78.8 °F 55.4 °F 44% 30.14 in 10.0 mi NW 8.1 mph - N/A   Scattered Clouds
4:55 PM 78.8 °F 53.6 °F 42% 30.11 in 10.0 mi NNE 3.5 mph - N/A   Partly Cloudy
5:55 PM 77.0 °F 51.8 °F 41% 30.10 in 10.0 mi Calm Calm - N/A   Clear
6:55 PM 75.2 °F 51.8 °F 44% 30.10 in 10.0 mi North 4.6 mph - N/A   Clear
7:55 PM 71.6 °F 50.0 °F 46% 30.11 in 10.0 mi NNE 4.6 mph - N/A   Clear
8:55 PM 62.6 °F 53.6 °F 72% 30.13 in 10.0 mi SE 6.9 mph - N/A   Clear
9:55 PM 62.6 °F 51.8 °F 68% 30.13 in 10.0 mi Calm Calm - N/A   Clear
10:55 PM 60.8 °F 51.8 °F 72% 30.14 in 10.0 mi Calm Calm - N/A   Clear
11:55 PM 57.2 °F 51.8 °F 82% 30.14 in 10.0 mi Calm Calm - N/A   Clear